Theta_e
324 324 325 325 325 324 325 324 321 316 316 322 324 329 330 329 329 325 323 324 324 321 320 321 322 322 323 322 323 323 323 323 323 323 321 319 317 316
325 326 325 325 324 326 325 325 323 320 316 322 323 328 330 330 330 325 324 323 322 319 319 318 318 318 318 319 319 320 321 320 319 318 318 318 317 316
325 324 323 326 325 325 326 326 324 323 319 321 325 327 328 327 326 326 326 322 320 318 319 317 315 315 315 315 316 317 318 317 316 316 315 315 315 314
323 323 324 325 325 325 325 324 324 324 322 319 323 325 324 324 323 323 323 323 318 318 317 315 313 312 312 312 312 313 312 312 312 313 313 313 313 312
322 323 324 324 324 324 324 324 324 326 323 321 320 321 320 320 318 319 320 316 318 318 314 313 312 311 311 311 310 310 309 308 307 308 309 310 310 311
323 323 324 324 323 324 324 324 324 322 321 320 318 317 316 316 313 314 316 318 316 316 315 311 311 312 311 310 310 310 308 306 304 304 304 304 304 305
325 325 325 325 323 323 325 323 322 322 319 318 315 313 313 314 311 314 315 315 315 311 307 307 306 306 307 310 311 312 309 306 305 304 303 302 300 301
324 324 324 322 319 317 317 317 320 320 315 314 313 312 313 314 314 316 314 312 311 317 311 307 305 303 305 303 306 305 304 305 305 304 303 302 300 300
322 322 324 325 319 320 310 309 311 311 316 315 313 313 312 315 315 313 312 313 312 316 313 310 309 305 306 308 304 303 302 302 302 303 303 302 300 299
321 320 319 317 317 314 315 316 317 318 317 323 318 316 316 317 318 319 316 315 314 316 315 311 311 311 313 313 306 304 302 301 301 300 300 300 299 297
320 316 319 316 307 308 317 315 314 308 302 301 301 298 297 302 309 313 310 306 303 304 304 304 301 300 302 304 304 303 301 300 299 299 299 299 298 297
309 312 309 308 301 307 314 313 311 310 307 305 305 300 298 300 302 304 306 300 299 298 305 301 300 300 300 304 305 304 304 301 299 298 298 298 298 294
310 306 307 298 300 303 309 314 311 309 307 308 310 310 312 311 306 307 305 303 302 301 306 302 300 303 302 300 300 301 301 299 299 298 297 297 297 296
309 306 300 295 297 297 298 295 299 303 305 305 307 309 308 309 310 308 305 305 306 305 306 306 304 303 301 297 296 298 299 300 298 297 297 297 296 296
307 304 295 294 296 295 294 297 300 302 303 306 307 305 304 303 303 304 304 306 304 306 307 307 305 303 300 297 297 297 297 299 298 297 296 296 295 291
299 297 296 296 296 296 292 292 297 302 305 307 303 303 302 301 300 303 299 300 301 302 304 302 300 301 298 297 295 293 295 293 295 295 298 297 297 297
299 297 295 291 293 298 303 299 301 304 306 302 300 299 299 299 300 301 301 300 297 295 294 296 300 298 297 295 293 293 293 292 294 295 295 293 294 294
305 304 303 302 299 301 303 306 308 306 301 302 299 298 299 298 298 299 298 295 293 293 294 294 293 292 293 295 300 293 293 292 293 293 292 289 289 291
305 307 307 307 307 307 309 305 301 300 301 300 299 302 300 300 299 297 296 295 295 293 293 293 290 289 287 286 291 295 290 289 290 289 287 290 289 289
303 304 306 309 311 306 304 302 301 300 300 302 301 301 301 298 296 295 295 294 293 293 291 291 290 289 287 286 286 288 291 288 288 288 288 289 289 292
304 305 307 309 305 303 302 301 301 301 300 301 298 299 299 297 296 295 293 289 290 291 290 289 291 287 290 289 284 284 287 291 292 289 289 290 288 289
306 306 306 304 303 303 302 300 298 298 299 299 299 299 298 297 294 293 293 292 291 291 290 290 291 290 287 284 283 284 285 286 291 293 294 293 290 286
308 307 304 303 304 302 300 300 300 299 299 299 299 298 296 294 294 293 293 293 291 290 289 288 288 287 285 283 282 283 283 285 286 286 288 292 293 293
Wind_Speed
5 7 8 7 7 7 8 7 8 6 3 5 3 5 5 5 7 6 7 11 11 11 9 8 8 8 8 6 8 8 8 8 9 8 10 11 13 14
6 10 9 8 8 8 8 7 7 6 4 2 3 4 5 5 9 7 6 9 9 8 8 9 8 8 9 10 9 8 8 9 11 11 10 10 11 13
8 12 12 11 7 7 8 9 7 5 8 3 2 3 4 6 4 3 4 5 4 10 12 11 11 11 11 9 9 9 12 10 10 10 11 11 12 12
9 10 11 9 9 8 7 9 8 5 5 7 3 2 2 5 7 5 4 6 7 11 13 13 14 12 9 10 10 9 8 10 10 11 12 12 13 15
8 10 9 12 9 7 7 6 6 4 3 4 3 2 2 2 3 2 4 5 5 9 12 10 9 9 9 10 10 10 12 12 12 13 14 15 14 14
7 8 8 9 10 8 7 6 5 4 5 5 3 3 2 1 2 3 2 2 3 1 4 7 8 10 12 11 11 14 14 15 16 16 15 15 14 14
7 7 8 9 11 8 6 5 5 6 6 4 3 2 2 2 4 2 2 2 3 3 3 4 3 3 5 10 14 18 18 17 18 19 18 16 15 15
9 7 7 10 10 11 9 8 7 7 5 5 4 4 5 3 2 4 3 2 3 3 5 4 4 4 7 7 15 17 16 19 21 20 20 20 18 18
7 7 8 6 8 6 5 8 7 10 10 7 6 5 4 7 5 3 4 4 4 4 3 3 4 6 6 8 15 17 17 18 18 18 19 18 19 19
7 7 6 6 6 8 7 6 6 7 6 3 7 4 4 5 5 4 6 3 2 4 2 3 3 2 3 3 4 6 10 14 16 18 18 18 18 17
5 6 7 7 8 12 8 7 6 5 4 10 11 10 10 9 7 3 2 4 2 1 4 2 3 3 3 2 3 8 9 10 9 11 13 13 15 14
5 5 10 9 8 7 7 7 5 2 4 4 3 2 3 2 6 4 4 3 1 2 2 2 1 1 4 3 3 3 3 7 8 9 11 13 13 4
5 3 3 10 10 9 9 6 5 4 4 4 1 2 5 4 3 4 5 4 3 2 3 3 2 1 2 3 3 4 3 4 3 5 7 11 14 10
5 4 5 9 12 11 8 10 9 7 5 5 5 6 5 5 5 5 5 5 3 4 4 3 1 1 2 3 5 4 4 6 3 4 4 8 12 13
5 8 13 12 13 10 9 10 8 5 5 6 6 5 3 3 4 5 3 2 2 2 6 5 1 3 0 3 4 4 5 4 4 4 5 5 5 3
8 7 7 8 7 8 5 4 3 4 4 7 5 4 3 3 4 1 1 3 4 5 6 8 7 4 3 3 1 4 4 4 4 5 9 5 5 5
8 4 3 3 3 3 3 4 3 5 7 5 6 5 4 3 3 4 3 4 4 2 4 5 8 7 4 3 4 4 4 3 5 9 10 10 9 6
4 4 3 4 5 5 5 3 3 7 5 7 5 5 4 5 4 4 4 4 3 4 4 4 5 5 5 4 10 7 6 8 9 10 8 9 11 10
4 4 5 6 5 5 6 7 6 5 6 6 5 4 5 4 5 4 4 4 4 3 4 2 4 4 6 7 5 13 8 8 9 9 5 7 9 11
4 5 6 5 6 8 9 10 9 6 5 7 6 5 5 4 4 5 4 3 2 2 3 3 4 3 3 6 5 5 10 7 8 9 9 7 7 14
5 5 4 7 8 9 10 9 9 8 7 6 4 5 6 6 5 4 4 5 4 2 2 2 1 4 1 3 4 4 4 11 10 10 11 9 6 8
8 6 7 8 10 11 10 9 8 7 7 7 7 6 5 6 5 5 4 3 2 1 1 1 3 4 3 2 7 8 7 5 10 13 16 12 8 8
7 9 10 10 10 10 11 10 9 8 8 8 7 5 6 5 5 5 4 4 3 1 2 2 3 2 2 2 5 9 10 11 9 9 11 17 18 20
Wind_Direction
95 105 111 112 111 105 119 145 145 130 119 121 127 149 137 132 156 151 165 170 177 183 182 185 184 185 192 211 226 208 210 215 219 215 226 238 244 251
102 106 106 106 109 113 107 93 82 103 110 88 74 140 151 139 164 158 168 173 181 180 184 194 198 198 206 214 214 218 213 214 222 225 225 234 248 255
119 130 119 120 119 117 114 110 101 90 120 63 77 117 135 140 168 169 171 177 191 196 199 201 204 210 215 218 216 219 224 225 235 237 241 243 247 253
123 135 125 124 118 111 121 114 113 92 121 121 109 132 159 166 171 176 175 197 200 211 207 207 213 214 217 225 228 234 237 236 236 237 241 244 246 249
128 130 130 128 123 120 98 123 98 95 108 125 142 148 123 153 134 171 200 212 208 216 214 221 223 221 223 231 231 236 236 237 236 237 239 242 245 249
115 125 128 130 123 120 122 131 118 136 144 141 136 138 120 190 133 171 255 225 220 214 217 218 215 222 230 229 231 236 238 235 234 234 235 237 237 240
116 122 126 128 124 149 147 160 170 168 156 135 113 139 145 171 188 201 211 285 287 186 221 237 220 224 253 242 244 240 236 233 236 236 234 232 234 235
138 138 136 134 153 178 188 184 187 151 145 145 175 163 208 198 133 193 193 197 273 205 181 263 156 230 245 229 235 237 237 237 240 239 234 230 230 231
138 143 152 164 166 185 146 145 165 169 157 156 173 184 181 196 159 210 216 202 208 268 134 268 192 238 246 259 242 241 245 248 253 249 246 239 232 232
147 153 158 159 174 150 153 141 123 94 85 123 134 135 147 127 150 187 211 209 48 43 17 255 32 320 307 294 33 277 272 268 269 266 260 253 248 245
144 154 139 146 155 154 144 133 119 107 81 91 106 128 129 139 159 125 40 60 348 325 342 118 346 324 307 327 350 20 349 319 288 275 265 265 262 265
90 108 138 132 104 103 134 134 119 148 122 104 92 102 199 105 51 64 153 130 132 28 296 91 262 344 344 314 301 306 321 297 301 282 273 270 269 256
133 128 112 122 107 99 141 143 159 146 128 117 103 327 30 47 93 75 74 103 81 357 276 77 272 236 209 291 303 303 310 292 282 287 280 274 266 233
163 153 131 135 115 105 91 123 124 108 102 84 62 68 72 53 63 82 80 78 102 177 256 184 271 65 350 311 279 315 327 302 285 282 292 282 279 262
163 161 150 148 118 94 117 103 91 88 85 81 93 88 86 113 78 63 73 190 165 72 30 27 5 328 104 277 299 322 320 299 338 316 320 318 291 280
107 124 138 131 121 121 94 70 102 108 118 122 113 104 80 72 74 350 54 29 47 16 5 39 46 58 12 352 313 314 320 326 335 334 336 317 323 312
107 92 104 108 147 139 136 165 126 102 108 121 116 129 97 63 44 47 42 52 71 22 348 11 14 32 16 330 352 344 317 334 336 341 343 337 333 325
104 134 166 170 181 177 171 139 113 119 124 120 105 93 89 79 43 45 73 75 69 30 40 22 10 5 357 341 24 358 1 350 339 338 341 324 319 321
150 176 182 189 194 164 140 132 122 115 113 104 108 121 104 90 102 83 74 64 60 54 50 52 40 44 2 342 306 45 349 336 323 313 305 300 304 310
166 184 200 167 153 131 131 130 127 128 123 128 114 112 90 98 69 82 84 88 70 60 57 41 62 40 38 338 324 312 304 307 318 317 318 306 275 280
190 196 138 138 132 131 133 134 136 137 135 118 116 116 106 112 103 89 82 73 78 68 67 32 97 198 21 322 327 296 278 294 302 312 315 311 310 314
189 131 137 130 133 135 135 133 128 123 126 124 117 112 106 108 107 101 95 93 77 80 141 69 11 30 353 332 302 300 303 292 312 302 309 301 304 308
148 139 142 141 141 141 139 138 138 139 140 132 120 121 104 105 121 117 104 96 99 61 65 9 352 358 312 299 299 327 319 330 327 331 327 324 312 308